TimeCDT,TemperatureF,Dew PointF,Humidity,Sea Level PressureIn,VisibilityMPH,Wind Direction,Wind SpeedMPH,Gust SpeedMPH,PrecipitationIn,Events,Conditions,WindDirDegrees,DateUTC
12:53 AM,52.0,46.9,83,29.85,10.0,SSW,3.5,-,N/A,,Clear,200,2013-09-25 05:53:00
1:53 AM,52.0,46.9,83,29.85,10.0,SE,5.8,-,N/A,,Clear,130,2013-09-25 06:53:00
2:53 AM,46.9,45.0,93,29.85,10.0,SE,4.6,-,N/A,,Clear,140,2013-09-25 07:53:00
3:53 AM,50.0,46.9,89,29.84,10.0,SE,5.8,-,N/A,,Clear,140,2013-09-25 08:53:00
4:53 AM,48.9,46.9,93,29.82,10.0,SE,5.8,-,N/A,,Clear,130,2013-09-25 09:53:00
5:53 AM,48.9,48.0,97,29.83,8.0,SSE,5.8,-,N/A,,Clear,150,2013-09-25 10:53:00
6:53 AM,48.9,48.0,97,29.82,9.0,SSE,4.6,-,N/A,,Partly Cloudy,150,2013-09-25 11:53:00
7:53 AM,50.0,48.0,93,29.82,7.0,SSE,6.9,-,N/A,,Partly Cloudy,150,2013-09-25 12:53:00
8:53 AM,54.0,51.1,90,29.82,10.0,SSE,10.4,-,N/A,,Scattered Clouds,160,2013-09-25 13:53:00
9:53 AM,61.0,54.0,78,29.83,10.0,SSE,12.7,-,N/A,,Partly Cloudy,160,2013-09-25 14:53:00
10:53 AM,66.9,55.0,66,29.81,10.0,SSE,17.3,-,N/A,,Scattered Clouds,160,2013-09-25 15:53:00
11:53 AM,72.0,55.0,55,29.79,10.0,SSE,19.6,26.5,N/A,,Mostly Cloudy,160,2013-09-25 16:53:00
12:53 PM,73.9,54.0,50,29.78,10.0,SSE,21.9,25.3,N/A,,Mostly Cloudy,160,2013-09-25 17:53:00
1:53 PM,75.9,55.0,48,29.75,10.0,SSE,23.0,26.5,N/A,,Scattered Clouds,150,2013-09-25 18:53:00
2:53 PM,77.0,53.1,43,29.73,10.0,South,19.6,28.8,N/A,,Scattered Clouds,170,2013-09-25 19:53:00
3:53 PM,75.9,54.0,46,29.70,10.0,SSE,25.3,32.2,N/A,,Scattered Clouds,150,2013-09-25 20:53:00
4:53 PM,75.0,54.0,48,29.69,10.0,SSE,23.0,31.1,N/A,,Scattered Clouds,150,2013-09-25 21:53:00
5:53 PM,75.0,53.1,46,29.69,10.0,SE,20.7,31.1,N/A,,Scattered Clouds,140,2013-09-25 22:53:00
6:53 PM,72.0,52.0,49,29.69,10.0,SE,17.3,26.5,N/A,,Mostly Cloudy,140,2013-09-25 23:53:00
7:53 PM,69.1,52.0,54,29.70,10.0,SE,18.4,24.2,N/A,,Mostly Cloudy,140,2013-09-26 00:53:00
8:53 PM,66.0,51.1,59,29.71,10.0,SE,11.5,-,N/A,,Mostly Cloudy,130,2013-09-26 01:53:00
9:53 PM,64.9,52.0,63,29.73,10.0,SE,15.0,-,N/A,,Mostly Cloudy,140,2013-09-26 02:53:00
10:53 PM,64.0,52.0,65,29.72,10.0,SE,16.1,-,N/A,,Mostly Cloudy,140,2013-09-26 03:53:00
11:53 PM,63.0,52.0,67,29.72,10.0,SE,17.3,-,N/A,,Clear,140,2013-09-26 04:53:00